NOAA NWS Hourly Roundups by Site

Regional Weather Roundup for Omaha, NE

To Select Another Site Choose from List

Select Site:  

000
ASUS43 KOAX 070310
RWRNE

WEATHER ROUNDUP FOR NEBRASKA
NATIONAL WEATHER SERVICE OMAHA NE
1000 PM CDT WED JUL 06 2022

NOTES: SATELLITE DATA IS BEING USED TO AUGMENT CLOUD COVER ABOVE
       12000 FEET.
       "FAIR" INDICATES FEW OR NO CLOUDS BELOW 12,000 FEET WITH NO
       SIGNIFICANT WEATHER AND/OR OBSTRUCTIONS TO VISIBILITY.


NEZ001>004-019>022-054>056-070400-
NEBRASKA PANHANDLE

CITY           SKY/WX    TMP DP  RH WIND       PRES   REMARKS
SCOTTSBLUFF    CLOUDY    73  63  70 SE9       30.07S
ALLIANCE       CLOUDY    71  65  81 S5        30.06S
CHADRON        CLOUDY    72  59  63 SE10      30.04R
GORDON         RAIN      69  67  95 W6        30.06S
KIMBALL        CLOUDY    64  62  92 CALM      30.13S
SIDNEY         CLOUDY    69  66  90 N7        30.06S
$$

NEZ057>060-069>072-079>082-070400-
SOUTHWEST NEBRASKA

CITY           SKY/WX    TMP DP  RH WIND       PRES   REMARKS
NORTH PLATTE   MOCLDY    76  68  76 SE5       30.01R
IMPERIAL       CLOUDY    75  69  81 SE8G22    30.00F
LEXINGTON      PTCLDY    76  70  81 E5        29.98F
MCCOOK         MOCLDY    77  68  73 E6        29.98S
OGALLALA       CLOUDY    78  64  62 E9        30.02S
$$

NEZ005>010-023>029-035>040-094-070400-
NORTH CENTRAL NEBRASKA

CITY           SKY/WX    TMP DP  RH WIND       PRES   REMARKS
VALENTINE      MOCLDY    78  64  61 SE5       30.01R
AINSWORTH      MOCLDY    74  68  79 SE5       30.02R
BROKEN BOW     PTCLDY    76  67  73 E5        30.00R
O`NEILL        MOCLDY    78  69  73 SE5       30.00R
ORD            PTCLDY    77  69  76 SE5       29.97S
THEDFORD       MOCLDY    75  65  72 E3        30.04R
$$

NEZ041-046>049-061>064-073>077-083>087-070400-
SOUTH CENTRAL NEBRASKA

CITY           SKY/WX    TMP DP  RH WIND       PRES   REMARKS
GRAND ISLAND   MOCLDY    77  70  79 E7        29.96F
AURORA         MOCLDY    76  73  91 E8        29.96S
HASTINGS       MOCLDY    79  72  79 E8        29.97S
HEBRON         CLOUDY    78  71  77 E8        29.93S
HOLDREGE       MOCLDY    75  71  89 E3        29.97S
KEARNEY        MOCLDY    76  73  91 E8        29.98R
YORK           MOCLDY    75  73  94 E8        29.95F
$$

NEZ011>018-030>034-042>045-070400-
NORTHEAST NEBRASKA

CITY           SKY/WX    TMP DP  RH WIND       PRES   REMARKS
NORFOLK        MOCLDY    77  70  79 E3        29.97R
ALBION         PTCLDY    75  72  91 SE7       29.99R
BLAIR          MOCLDY    73  71  93 CALM      29.97S
COLUMBUS       MOCLDY    74  74 100 E6        29.98S
FREMONT        MOCLDY    77  72  84 E3        29.97S
TEKAMAH        MOCLDY    76  73  91 CALM      29.97R
WAYNE          CLOUDY    77  71  81 SE6       29.98S
$$

NEZ050>053-065>068-078-088>093-070400-
SOUTHEAST NEBRASKA

CITY           SKY/WX    TMP DP  RH WIND       PRES   REMARKS
LINCOLN        CLOUDY    78  73  84 E9        29.95F
OMAHA EPPLEY   MOCLDY    75  72  90 SE5       29.96S
BEATRICE       CLOUDY    77  73  90 E8        29.94S
FALLS CITY     MOCLDY    77  74  90 NE6       29.93F
NEBRASKA CITY  CLOUDY    75  73  93 E5        29.96S
PLATTSMOUTH    MOCLDY    74  72  93 E5        29.96F
$$

NEZ044-045-051>053-067-070400-
OMAHA AREA

CITY           SKY/WX    TMP DP  RH WIND       PRES   REMARKS
OMAHA EPPLEY   MOCLDY    75  72  90 SE5       29.96S
BLAIR          MOCLDY    73  71  93 CALM      29.97S
FREMONT        MOCLDY    77  72  84 E3        29.97S
MILLARD        MOCLDY    75  72  89 CALM      29.96S
OFFUTT AFB     CLOUDY    74  72  91 NE3       29.98F
PLATTSMOUTH    MOCLDY    74  72  93 E5        29.96F
WAHOO          MOCLDY    74  74 100 SE5       29.96F
$$


 

View Past Reports for Omaha, NE.

Products Courtesy of NOAA-NWS
NWS Information Parsing Script by Ken True at Saratoga Weather - Script by SE Lincoln Weather.